Current weather by "City, St" or "zip code"  
 
Advertise Here

Current Conditions: Columbus, Columbus Metropolitan Airport, GA

Fair


70.0 F

Last Updated on May 30 2020, 4:51 am EDT
Humidity: 93%
Wind Speed: N 0.0 mph
Barometer 30.02 in
Dewpoint: 68.0 F
Visibility: 10.00 mi
Precip: --
Heat Index: NA
Wind Chill: NA
Current conditions at:

Columbus, Columbus Metropolitan Airport, GA (KCSG)

Lat: 32.51611 Lon: 84.94222

Local Radar Image active severe weather and emergency alerts image image weather storm and storm spotter reports image weather observation monitoring service image
Local
Radar
Active
Alerts
Storm Reports Obs
Monitoring

Sign-up For Email & Text Message Weather Alert Notification Services


Advertise Here

Observation History for Columbus, Columbus Metropolitan Airport, GA


Time Wind
(mph)
Vis
(mi)
Weather Precip (in) Temperature (F) Relative
Humidity
Wind
Chill
(F)
Heat
Index
(F)
Pressure
Air Dwpt altimeter
(in)
sea level
(mb)
Rmks
4:51 am EDT N 0.0 10.00 Fair -- 70.0 68.0 93% NA NA 30.02 1016.0
3:51 am EDT N 0.0 10.00 Fair -- 71.0 69.1 94% NA NA 30.02 1016.1
2:51 am EDT N 0.0 10.00 Fair -- 72.0 69.1 91% NA NA 30.03 1016.4
1:51 am EDT N 0.0 10.00 Fair -- 73.0 69.1 87% NA NA 30.04 1016.6
12:51 am EDT S 3.5 10.00 Fair -- 73.0 70.0 90% NA NA 30.05 1016.9
11:51 pm EDT SW 5.8 10.00 Fair -- 74.0 70.0 88% NA NA 30.04 1016.7
10:51 pm EDT SW 5.8 10.00 Fair -- 75.0 70.0 84% NA NA 30.04 1016.8
9:51 pm EDT S 8.1 10.00 Mostly Cloudy -- 77.0 70.0 79% NA NA 30.03 1016.4
8:51 pm EDT SE 4.6 10.00 Fair -- 78.0 70.0 76% NA NA 30.02 1015.9
7:51 pm EDT S 6.9 10.00 Mostly Cloudy -- 80.0 69.1 69% NA 83 29.99 1015.1
6:51 pm EDT W 8.1 10.00 Partly Cloudy -- 87.0 66.0 50% NA 89 29.97 1014.2
5:51 pm EDT NW 9.2 10.00 Fair -- 88.0 66.9 50% NA 91 29.98 1014.5
4:51 pm EDT W 9.2 10.00 Mostly Cloudy -- 86.0 66.9 53% NA 89 29.98 1014.8
3:51 pm EDT SW 5.8 10.00 Mostly Cloudy -- 85.0 66.9 55% NA 88 29.98 1014.7
2:51 pm EDT S 8.1 10.00 Partly Cloudy -- 85.0 66.9 55% NA 88 30.00 1015.3
1:51 pm EDT SW 8.1 10.00 Mostly Cloudy -- 84.0 66.0 55% NA 86 30.02 1016.0
12:51 pm EDT W 5.8 10.00 Mostly Cloudy -- 84.0 66.0 55% NA 86 30.04 1016.6
11:51 am EDT 3.5 10.00 Mostly Cloudy -- 82.0 66.0 58% NA 84 30.05 1017.1
10:51 am EDT N 0.0 10.00 Mostly Cloudy -- 80.0 69.1 69% NA 83 30.06 1017.3
9:51 am EDT N 0.0 10.00 A Few Clouds -- 77.0 70.0 79% NA NA 30.07 1017.6
8:51 am EDT S 3.5 10.00 Mostly Cloudy -- 75.0 70.0 84% NA NA 30.06 1017.6
7:51 am EDT S 3.5 10.00 A Few Clouds -- 73.0 69.1 87% NA NA 30.06 1017.4
6:51 am EDT W 4.6 10.00 A Few Clouds -- 73.0 68.0 84% NA NA 30.04 1016.7
5:51 am EDT N 0.0 10.00 Mostly Cloudy -- 72.0 68.0 87% NA NA 30.02 1016.1

Regional Weather Observation


Columbus, Columbus Metropolitan Airport, GA (KCSG)

Fair
70.0 F

Fort Benning, GA (KLSF)

Fog/Mist
68.0 F

LaGrange-Callaway Airport, GA (KLGC)

Fog
67.0 F

Alexander City, Thomas C Russell Field Airport, AL (KALX)

Fair
66.0 F

Thomaston, Thomaston-Upson County Airport, GA (KOPN)

Fog/Mist
70.0 F

Butler Municipal Airport, GA (K6A1)

NULL
71.0 F